Location: Unspecified
(0.0000°N, 0.0000°E)
Time: 09:51:46
(UTC+00:00)

Transit 2A - All Passes

Search period start: 31 October 2014 00:00
Search period end: 10 November 2014 00:00
Orbit: 598 x 965 km, 66.7° (Epoch: 30 October)

Date Brightness Start Highest point End Pass type
(mag) Time Alt. Az. Time Alt. Az. Time Alt. Az.
31 Oct - 00:57:20 10° W 00:59:21 13° WNW 01:01:21 10° NW night (unlit)
31 Oct - 11:44:35 10° NNW 11:50:49 89° ENE 11:57:13 10° SSE daylight
31 Oct - 22:40:58 10° SE 22:42:56 13° ESE 22:44:52 10° E night (unlit)
01 Nov - 00:22:22 10° SW 00:25:50 23° WNW 00:29:17 10° NNW night (unlit)
01 Nov - 11:11:13 10° N 11:17:18 58° ENE 11:23:32 10° SSE daylight
01 Nov - 12:57:44 10° W 13:00:26 13° WSW 13:03:10 10° SW daylight
01 Nov - 23:48:12 10° SW 23:52:20 42° WNW 23:56:24 10° N night (unlit)
02 Nov - 10:38:08 10° N 10:43:48 37° ENE 10:49:34 10° SE daylight
02 Nov - 12:22:18 10° WNW 12:26:52 21° WSW 12:31:29 10° SSW daylight
02 Nov - 23:14:28 10° SSW 23:18:50 82° WNW 23:23:08 10° NNE night (unlit)
03 Nov - 10:05:25 10° NNE 10:10:16 24° ENE 10:15:12 10° ESE daylight
03 Nov - 11:47:47 10° NW 11:53:19 33° WSW 11:58:54 10° S daylight
03 Nov - 22:41:04 10° S 22:45:20 52° ESE 22:49:30 10° NNE night (unlit)
04 Nov - 09:33:24 10° NE 09:36:44 15° ENE 09:40:06 10° ESE daylight
04 Nov - 11:13:44 10° NW 11:19:46 51° WSW 11:25:55 10° S daylight
04 Nov - 22:08:02 10° S 22:11:49 28° ESE 22:15:30 10° NE night (unlit)
04 Nov - 23:54:06 10° WNW 23:54:41 10° WNW 23:55:16 10° WNW night (unlit)
05 Nov - 10:39:59 10° NNW 10:46:15 79° WSW 10:52:36 10° SSE daylight
05 Nov - 21:35:36 10° SSE 21:38:16 16° ESE 21:40:53 10° ENE night (unlit)
05 Nov - 23:18:05 10° WSW 23:21:09 19° WNW 23:24:13 10° NNW night (unlit)
06 Nov - 10:06:31 10° NNW 10:12:43 68° ENE 10:19:02 10° SSE daylight
06 Nov - 11:54:43 10° W 11:55:52 11° WSW 11:57:00 10° WSW daylight
06 Nov - 22:43:42 10° SW 22:47:38 34° WNW 22:51:33 10° N night (unlit)
07 Nov - 09:33:19 10° N 09:39:12 43° ENE 09:45:11 10° SE daylight
07 Nov - 11:18:14 10° WNW 11:22:17 18° WSW 11:26:22 10° SSW daylight
07 Nov - 22:09:49 10° SSW 22:14:08 65° WNW 22:18:24 10° NNE night (unlit)
08 Nov - 09:00:27 10° NNE 09:05:41 28° ENE 09:10:58 10° SE daylight
08 Nov - 10:43:28 10° NW 10:48:44 28° WSW 10:54:01 10° SSW daylight
08 Nov - 21:36:18 10° SSW 21:40:38 66° ESE 21:44:53 10° NNE night (unlit)
09 Nov - 08:28:06 10° NNE 08:32:08 18° ENE 08:36:13 10° ESE daylight
09 Nov - 10:09:16 10° NW 10:15:11 43° WSW 10:21:09 10° S daylight
09 Nov - 21:03:08 10° S 21:07:06 35° ESE 21:11:01 10° NE night (unlit)
